TimeCDT,TemperatureF,Dew PointF,Humidity,Sea Level PressureIn,VisibilityMPH,Wind Direction,Wind SpeedMPH,Gust SpeedMPH,PrecipitationIn,Events,Conditions,WindDirDegrees,DateUTC
12:53 AM,55.0,46.0,72,29.84,10.0,SSE,17.3,-,N/A,,Clear,150,2013-04-06 05:53:00
1:53 AM,55.0,46.0,72,29.83,10.0,SSE,15.0,-,N/A,,Clear,160,2013-04-06 06:53:00
2:53 AM,55.9,46.0,69,29.84,10.0,South,9.2,-,N/A,,Clear,190,2013-04-06 07:53:00
3:53 AM,55.0,46.0,72,29.81,10.0,SSE,10.4,-,N/A,,Clear,150,2013-04-06 08:53:00
4:53 AM,54.0,46.0,75,29.79,10.0,SE,9.2,-,N/A,,Clear,140,2013-04-06 09:53:00
5:53 AM,53.1,46.0,77,29.77,10.0,SSE,12.7,-,N/A,,Clear,150,2013-04-06 10:53:00
6:53 AM,51.1,45.0,80,29.79,10.0,SSE,9.2,-,N/A,,Clear,160,2013-04-06 11:53:00
7:53 AM,50.0,45.0,83,29.81,10.0,SSE,10.4,-,N/A,,Clear,150,2013-04-06 12:53:00
8:53 AM,57.0,46.9,69,29.81,10.0,SSE,15.0,20.7,N/A,,Clear,160,2013-04-06 13:53:00
9:53 AM,62.1,46.9,58,29.81,10.0,South,20.7,-,N/A,,Clear,180,2013-04-06 14:53:00
10:53 AM,66.0,46.0,48,29.81,10.0,SSW,18.4,24.2,N/A,,Clear,200,2013-04-06 15:53:00
11:53 AM,70.0,46.0,42,29.81,10.0,South,12.7,21.9,N/A,,Clear,190,2013-04-06 16:53:00
12:53 PM,73.0,46.0,38,29.80,10.0,SSW,9.2,-,N/A,,Clear,210,2013-04-06 17:53:00
1:53 PM,73.9,45.0,35,29.79,10.0,Variable,3.5,-,N/A,,Clear,0,2013-04-06 18:53:00
2:53 PM,73.0,45.0,37,29.77,10.0,Calm,Calm,-,N/A,,Clear,0,2013-04-06 19:53:00
3:53 PM,77.0,45.0,32,29.75,10.0,Calm,Calm,-,N/A,,Clear,0,2013-04-06 20:53:00
4:53 PM,75.9,46.0,35,29.74,10.0,South,5.8,-,N/A,,Clear,180,2013-04-06 21:53:00
5:53 PM,77.0,46.0,33,29.74,10.0,SE,4.6,-,N/A,,Clear,130,2013-04-06 22:53:00
6:53 PM,73.0,51.1,46,29.75,10.0,NE,5.8,-,N/A,,Clear,40,2013-04-06 23:53:00
7:53 PM,68.0,53.1,59,29.76,10.0,NE,8.1,-,N/A,,Clear,50,2013-04-07 00:53:00
8:53 PM,66.0,53.1,63,29.75,10.0,ENE,10.4,-,N/A,,Clear,70,2013-04-07 01:53:00
9:53 PM,63.0,53.1,70,29.78,10.0,ENE,10.4,-,N/A,,Clear,60,2013-04-07 02:53:00
10:53 PM,61.0,52.0,72,29.78,10.0,NE,10.4,-,N/A,,Clear,40,2013-04-07 03:53:00
11:53 PM,59.0,51.1,75,29.78,10.0,NNE,10.4,-,N/A,,Clear,30,2013-04-07 04:53:00